Tracking 19969 objects as of 14-Nov-2019
Live streaming from Space Station
objects crossing your sky now
Track the group of recently launched Starlink satellites

TABLETSAT AURORA

Track TABLETSAT AURORA now!
10-day predictions
TABLETSAT AURORA is classified as:


NORAD ID: 40017
Int'l Code: 2014-033H
Perigee: 578.8 km
Apogee: 610.0 km
Inclination: 98.0 °
Period: 96.4 minutes
Semi major axis: 6965 km
RCS: Unknown
Launch date: June 19, 2014
Source: Commonwealth of Independent States (former USSR) (CIS)
Launch site: Orenburg, Russia (OREN)

Uplink (MHz):
Downlink (MHz): 435.550/436.100
Beacon (MHz): 437.050
Mode: 9600bps GMSK D-STAR
Call sign:
Status: Inactive

aabbcc
Your satellite tracking list
Your tracking list is empty




NASA's NSSDC Master Catalog

Two Line Element Set (TLE):
1 40017U 14033H   19317.70149312 -.00000144  00000-0 -78191-5 0  9993
2 40017  97.9979 259.0910 0022409 301.9266  57.9767 14.93414519294225
Source of the keplerian elements: AFSPC